Weather in Yardymli

Azerbaijan     38°54′34″N   48°14′58″E
temp.,
°C
wind,
m/s
gust,
m/s
humid.,
%
clouds,
%
prec.,
mm/h
press.,
hPa
HPBL,
m
19 september, sun
sun1901:00+14sse22831 0.0 101720
04:00+14s11800 0.0 101611
07:00+14s11760 0.0 101712
10:00+19ene31580 0.0 1016601
13:00+22ene43520 0.0 1015958
16:00+22ene42550 0.0 1013819
19:00+17e11800 0.0 101413
22:00+17w11810 0.0 101411
20 september, mon
mon2001:00+17wsw22710 0.0 101420
04:00+16w22610 0.0 101419
07:00+16wsw33590 0.0 101530
10:00+21n22420 0.0 1014781
13:00+24ne32370 0.0 10121252
16:00+25ene32380 0.0 10111161
19:00+19e11650 0.0 101211
22:00+18wsw11630 0.0 101411
21 september, tue
tue2101:00+18wsw22591 0.0 101514
04:00+17wsw22594 0.0 101511
07:00+17sw11620 0.0 101611
10:00+22ne21490 0.0 1016796
13:00+24ene43450 0.0 10131390
16:00+24ene42500 0.0 1012933
19:00+19se22740 0.0 101224
22:00+19ssw11712 0.0 101213
22 september, wed
wed2201:00+19wsw326336 0.0 101118
04:00+18w33570 0.0 101122
07:00+18wsw33610 0.0 101223
10:00+23ne3242100 0.0 1011832
13:00+24ene5442100 0.0 10101188
16:00+22e665679 0.0 1008801
19:00+16ese459198 0.0 1010296
22:00+16ese348851 0.1 1012380
23 september, thu
thu2301:00+15ese229263 0.1 1012162
04:00+15se239487 0.6 1012207
07:00+15ese3595100 0.5 1012429
10:00+15e349397 0.7 1012410
13:00+18ese348051 0.1 1009431
16:00+20e337341 0.1 1007454
19:00+16ese229518 0.0 100751
22:00+15s11910 0.0 100719